Weather History for Marathon, FL

Change the Weather History Date:

Sunday, January 5, 2014

  Actual Average Record
Temperature  
Mean Temperature 77 °F 69 °F  
Max Temperature 83 °F 75 °F 83 °F (2014)
Min Temperature 71 °F 64 °F 48 °F (2001)
Degree Days  
Heating Degree Days 0 2  
Month to date heating degree days 0 8  
Since 1 July heating degree days 1 29  
Cooling Degree Days 12 6  
Month to date cooling degree days 49 30  
Year to date cooling degree days 49 30  
Growing Degree Days 26 (Base 50)    
Moisture  
Dew Point 72 °F    
Average Humidity 87    
Maximum Humidity 100    
Minimum Humidity 74    
Precipitation  
Precipitation 0.12 in 0.06 in 0.12 in (2007)
Month to date precipitation 0.27 0.32  
Year to date precipitation 0.27 0.32  
Snow  
Snow 0.00 in - - ()
Month to date snowfall 0.0  
Since 1 July snowfall 0.0  
Snow Depth 0.00 in    
Sea Level Pressure  
Sea Level Pressure 30.01 in    
Wind  
Wind Speed 5 mph (SSE)    
Max Wind Speed 17 mph    
Max Gust Speed 27 mph    
Visibility 10 miles    
Events Rain , Thunderstorm    
T = Trace of Precipitation, MM = Missing Value Source: NWS Daily Summary

Daily Weather History Graph

Daily Weather History Graph

Search for Another Location

Airport:

Trip Planner

Search our weather history database for the weather conditions in past years. The results will help you decide how hot, cold, wet, or windy it might be!

Date:

Astronomy

Jan. 05, 2014 Rise Set
Actual Time 7:09 AM EST 5:49 PM EST
Civil Twilight 6:44 AM EST 6:14 PM EST
Nautical Twilight 6:16 AM EST 6:42 PM EST
Astronomical Twilight 5:48 AM EST 7:10 PM EST
Moon 10:22 AM EST (1/5) 10:40 PM EST (1/5)
Length of Visible Light 11h 29m
Length of Day
10h 40m
Waxing Crescent, 24% of the Moon is Illuminated
Jan 5
Waxing Crescent
Jan 7
First Quarter
Jan 15
Full
Jan 24
Last Quarter
Jan 30
New

Hourly Weather History & Observations

Time (EST) Temp. Heat Index Dew Point Humidity Pressure Visibility Wind Dir Wind Speed Gust Speed Precip Events Conditions
12:53 AM 72.0 °F - 72.0 °F 100% 30.06 in 10.0 mi NE 9.2 mph - 0.01 in   Mostly Cloudy
1:53 AM 72.0 °F - - N/A% 30.05 in 10.0 mi North 5.8 mph - 0.00 in   Mostly Cloudy
2:53 AM 72.0 °F - 71.1 °F 97% 30.03 in 10.0 mi East 4.6 mph - 0.01 in Rain Light Rain
3:28 AM 72.0 °F - 72.0 °F 100% 30.02 in 8.0 mi Calm Calm - 0.03 in Rain , Thunderstorm Light Rain
3:43 AM 72.0 °F - 72.0 °F 100% 30.01 in 7.0 mi Calm Calm - 0.06 in Rain Light Rain
3:53 AM 72.0 °F - 72.0 °F 100% 30.01 in 7.0 mi Calm Calm - 0.07 in Rain Light Rain
4:53 AM 73.9 °F - 73.0 °F 97% 29.99 in 10.0 mi ESE 9.2 mph - 0.02 in Rain Light Rain
5:53 AM 73.9 °F - 72.0 °F 93% 29.98 in 10.0 mi SSE 10.4 mph 17.3 mph 0.01 in Rain Light Rain
6:53 AM 73.9 °F - 71.1 °F 91% 29.94 in 10.0 mi SE 13.8 mph 24.2 mph 0.00 in   Mostly Cloudy
7:53 AM 75.9 °F - 72.0 °F 87% 29.99 in 10.0 mi SSE 11.5 mph 24.2 mph N/A   Scattered Clouds
8:53 AM 75.0 °F - 71.1 °F 87% 30.00 in 10.0 mi South 16.1 mph 26.5 mph N/A   Mostly Cloudy
9:53 AM 77.0 °F - 71.1 °F 82% 30.02 in 10.0 mi SSE 8.1 mph - N/A   Clear
10:53 AM 81.0 °F 85.2 °F 72.0 °F 74% 30.04 in 10.0 mi SSW 3.5 mph - N/A   Partly Cloudy
11:27 AM 80.1 °F 84.2 °F 73.0 °F 79% 30.04 in 10.0 mi Calm Calm - N/A   Mostly Cloudy
11:53 AM 80.1 °F 84.5 °F 73.9 °F 81% 30.03 in 10.0 mi Calm Calm - N/A   Overcast
12:06 PM 82.0 °F 87.9 °F 73.9 °F 76% 30.01 in 10.0 mi South 6.9 mph - N/A   Scattered Clouds
12:53 PM 82.9 °F 90.2 °F 75.0 °F 77% 29.99 in 10.0 mi South 5.8 mph - N/A   Partly Cloudy
1:53 PM 82.0 °F 87.9 °F 73.9 °F 76% 29.97 in 10.0 mi South 9.2 mph - N/A   Partly Cloudy
2:53 PM 81.0 °F 86.2 °F 73.9 °F 79% 29.97 in 10.0 mi Variable 5.8 mph - N/A   Partly Cloudy
3:53 PM 81.0 °F 86.2 °F 73.9 °F 79% 29.98 in 10.0 mi SSW 5.8 mph - N/A   Partly Cloudy
4:53 PM 79.0 °F - 72.0 °F 79% 29.99 in 10.0 mi SW 4.6 mph - N/A   Clear
5:53 PM 78.1 °F - 72.0 °F 81% 30.00 in 10.0 mi SW 3.5 mph - N/A   Clear
6:53 PM 75.0 °F - 72.0 °F 90% 30.01 in 10.0 mi Calm Calm - N/A   Clear
7:53 PM 73.0 °F - 72.0 °F 96% 30.03 in 10.0 mi Calm Calm - N/A   Clear
8:53 PM 73.0 °F - 72.0 °F 96% 30.02 in 10.0 mi Calm Calm - N/A   Clear
9:53 PM 73.0 °F - 71.1 °F 93% 30.03 in 10.0 mi Calm Calm - N/A   Clear
10:53 PM 71.1 °F - 71.1 °F 100% 30.03 in 10.0 mi Calm Calm - N/A   Clear
11:53 PM 71.1 °F - 70.0 °F 96% 30.02 in 10.0 mi Calm Calm - N/A   Clear